This demonstration page uses our WeatherBlox Daily Observations layout. Learn more.

Left ArrowRight Arrow

39.08367, -84.50855

Hourly Observations for December 21, 2016

Temp ( °F °C ) Dew Point ( °F °C ) Humidity (%) Winds ( mph kmh ) Pressure ( in mb ) Visibility ( mi km ) Precip ( " mm )
12:53 am 00:53 Clear 27 -2.8 24 -4.4 89 89 SSW 6 9 30.30 1026 10 16 0.00 0.00
1:53 am 01:53 Clear 25 -3.9 24 -4.4 96 96 S 6 9 30.29 1026 10 16 0.00 0.00
2:53 am 02:53 Clear 27 -2.8 25 -3.9 92 92 SW 5 7 30.32 1027 10 16 0.00 0.00
3:53 am 03:53 Clear 23 -5 22 -5.6 96 96 SW 6 9 30.32 1027 8 13 0.00 0.00
4:53 am 04:53 Clear with Mist and Fog 22 -5.6 21 -6.1 96 96 Calm 30.32 1027 6 10 0.00 0.00
5:53 am 05:53 Clear 23 -5 22 -5.6 96 96 SW 6 9 30.31 1026 7 11 0.00 0.00
6:53 am 06:53 Clear 23 -5 22 -5.6 96 96 SW 5 7 30.31 1026 7 11 0.00 0.00
7:53 am 07:53 Clear with Mist and Fog 25 -3.9 24 -4.4 96 96 Calm 30.33 1027 5 8 0.00 0.00
8:53 am 08:53 Sunny with Mist and Fog 23 -5 22 -5.6 96 96 SSW 6 9 30.32 1027 4 6 0.00 0.00
9:53 am 09:53 Sunny 28 -2.2 25 -3.9 88 88 S 5 7 30.32 1027 10 16 0.00 0.00
10:53 am 10:53 Sunny 30 -1.1 26 -3.3 85 85 S 7 11 30.31 1026 10 16 0.00 0.00
11:53 am 11:53 Sunny 33 0.6 27 -2.8 78 78 SSE 5 7 30.29 1026 10 16 0.00 0.00
12:53 pm 12:53 Sunny 35 1.7 27 -2.8 72 72 SSW 8 13 30.26 1025 10 16 0.00 0.00
1:53 pm 13:53 Sunny 36 2.2 26 -3.3 67 67 S 9 15 30.22 1023 10 16 0.00 0.00
2:53 pm 14:53 Sunny 37 2.8 27 -2.8 67 67 S 9 15 30.19 1022 10 16 0.00 0.00
3:53 pm 15:53 Sunny 38 3.3 27 -2.8 65 65 S 10 17 30.17 1022 10 16 0.00 0.00
4:53 pm 16:53 Sunny 38 3.3 27 -2.8 65 65 S 7 11 30.17 1022 10 16 0.00 0.00
5:53 pm 17:53 Mostly Cloudy 36 2.2 27 -2.8 70 70 Calm 30.15 1021 10 16 0.00 0.00
6:53 pm 18:53 Cloudy 35 1.7 30 -1.1 82 82 Calm 30.13 1020 10 16 0.00 0.00
7:53 pm 19:53 Mostly Cloudy 36 2.2 29 -1.7 76 76 WSW 5 7 30.11 1020 10 16 0.00 0.00
8:53 pm 20:53 Clear 33 0.6 28 -2.2 82 82 Calm 30.10 1019 10 16 0.00 0.00
9:53 pm 21:53 Clear 30 -1.1 28 -2.2 92 92 Calm 30.09 1019 10 16 0.00 0.00
10:53 pm 22:53 Clear 27 -2.8 26 -3.3 96 96 Calm 30.08 1019 10 16 0.00 0.00
11:53 pm 23:53 Clear 34 1.1 27 -2.8 76 76 SSW 6 9 30.07 1018 10 16 0.00 0.00

Powered by AerisWeather